This is the latest recevied weather packets stored in our database for station/object N5YHM-13. If no packets are shown the sender has not sent any weather packets the latest 10 day(s).
| Time | Temp. | Humidity | Pressure | Rain* | Wind** | Luminosity | Snow |
|---|---|---|---|---|---|---|---|
| 1778179207 | 25° C | 84% | 1015.7 hPa | 0 mm | - | 49 W/m² | - |
| 1778178902 | 25° C | 84% | 1015.8 hPa | 0 mm | - | 38 W/m² | - |
| 1778178600 | 24.44° C | 83% | 1015.7 hPa | 0 mm | - | 42 W/m² | - |
| 1778178296 | 24.44° C | 85% | 1015.9 hPa | 0 mm | - | 45 W/m² | - |
| 1778177992 | 24.44° C | 85% | 1015.9 hPa | 0 mm | - | 40 W/m² | - |
| 1778177689 | 24.44° C | 85% | 1015.8 hPa | 0 mm | - | 37 W/m² | - |
| 1778177385 | 23.89° C | 85% | 1016.1 hPa | 0 mm | - | 36 W/m² | - |
| 1778177082 | 23.89° C | 87% | 1016 hPa | 0 mm | - | 38 W/m² | - |
| 1778176778 | 23.33° C | 87% | 1016.1 hPa | 0 mm | - | 35 W/m² | - |
| 1778176475 | 23.33° C | 86% | 1016.1 hPa | 0 mm | - | 39 W/m² | - |
| 1778176173 | 23.33° C | 87% | 1016.2 hPa | 0 mm | - | 37 W/m² | - |
| 1778175869 | 23.33° C | 90% | 1016.1 hPa | 0 mm | - | 35 W/m² | - |
| 1778175567 | 22.78° C | 88% | 1016.4 hPa | 0 mm | - | 32 W/m² | - |
| 1778175264 | 22.78° C | 89% | 1016.4 hPa | 0 mm | - | 32 W/m² | - |
| 1778174961 | 22.22° C | 90% | 1016.2 hPa | 0 mm | - | 29 W/m² | - |
| 1778174657 | 22.22° C | 91% | 1016.4 hPa | 0 mm | - | 30 W/m² | - |
| 1778174353 | 21.67° C | 90% | 1016.5 hPa | 0 mm | - | 30 W/m² | - |
| 1778174050 | 21.67° C | 91% | 1016.5 hPa | 0 mm | - | 36 W/m² | - |
| 1778173747 | 21.67° C | 91% | 1016.7 hPa | 0 mm | - | 34 W/m² | - |
| 1778173443 | 21.11° C | 92% | 1016.5 hPa | 0 mm | - | 32 W/m² | - |
| 1778173140 | 21.11° C | 92% | 1016.8 hPa | 0 mm | - | 31 W/m² | - |
| 1778172836 | 21.11° C | 92% | 1016.5 hPa | 0 mm | - | 31 W/m² | - |
| 1778172532 | 21.11° C | 93% | 1016.9 hPa | 0 mm | - | 27 W/m² | - |
| 1778172229 | 21.11° C | 93% | 1016.8 hPa | 0 mm | - | 28 W/m² | - |
| 1778171926 | 20.56° C | 93% | 1016.9 hPa | 0 mm | - | 24 W/m² | - |
* Rain latest hour (hover to see other rain measurements)
** Current wind speed in m/s (hover to see current wind gust speed)